CAPE
1718 1767 1624 1947 1805 1764 1690 1709 1725 1652 1622 1562 1493 1428 1208 1113 1415 1456 1490 1511 1458 1505 1561 1532 1489 1448 1594 1544 1534 1414 1473 1520 1404 1348 1350 1303 1307 1187 1147 1050 960 979 1365 1324 1279 1140 1316 1314 1271 1373 1332 1427 1374 1270 1133 1017 948 1401 1370 1392 1286 1222 1565 1605 1526 1570 1503 1388 1170 921 804 776 579 201 158 298 506 440 313 206 82 28 181 347 196
1551 1814 1520 1462 1562 1639 1673 1698 1677 1697 1672 1610 1470 1400 1266 1157 1139 1322 1435 1407 1488 1401 1426 1486 1537 1686 1634 1563 1580 1544 1590 1578 1550 1526 1508 1388 1324 1238 1143 1025 940 955 902 752 1046 1324 1311 1365 1318 1232 1285 1445 1308 1293 1143 1024 847 1256 1274 1196 1111 1149 1449 1653 1636 1585 1421 1353 1144 1020 956 878 660 639 619 497 387 117 30 24 62 3 72 21 0
1940 1889 1733 1607 1716 1789 1682 1684 1729 1764 1719 1683 1710 1655 1499 1186 1205 1213 1470 1426 1583 1619 1558 1490 1588 1647 1771 1636 1645 1649 1612 1581 1526 1501 1494 1466 1367 1235 1162 1075 952 761 613 411 500 1210 1299 1311 1256 1234 1349 1391 1245 1152 946 984 872 865 997 1087 1159 1125 1286 1286 1258 1174 1142 1127 1147 1124 887 626 498 513 472 189 97 45 14 0 0 8 37 83 0
1990 2061 1849 1810 1747 1567 1603 1828 1790 1798 1727 1828 1742 1712 1626 1472 1285 1446 1566 1652 1730 1808 1764 1656 1700 1847 1864 1708 1726 1687 1566 1495 1393 1345 1345 1383 1362 1339 1130 983 864 738 641 633 598 570 780 879 903 796 1143 1160 1198 1041 894 837 846 873 865 937 1095 1182 1174 1251 1208 1179 1137 1202 1060 876 778 696 693 708 701 689 548 427 341 262 238 192 98 108 3
1990 1956 1878 1646 1588 1659 1668 1483 1591 1714 1985 1962 1904 1851 1833 1771 1685 1646 1685 1745 1837 1973 1973 1909 1853 1855 1762 1683 1618 1534 1371 1380 1365 1309 1312 1382 1422 1181 1032 1044 972 873 818 765 728 685 808 870 928 998 1157 1135 1066 1011 961 778 792 956 956 945 1094 1052 1008 1124 1156 1136 1094 1055 919 518 543 472 523 625 631 681 724 617 625 623 614 605 523 73 1
1920 2052 1924 1675 1515 1601 1480 1390 1698 1878 1807 1851 1835 1840 1934 1975 1916 1946 1953 1996 2113 2080 2009 1857 1791 1763 1625 1545 1478 1477 1393 1353 1346 1382 1584 1482 1542 1310 1279 1218 1115 1019 868 770 673 514 610 833 715 742 770 1015 1038 954 924 925 994 1041 1001 1081 1043 1040 1053 1102 1063 1039 1026 975 764 694 556 321 442 580 658 718 634 508 434 349 290 381 448 57 0
2102 2062 1942 1757 1696 1674 1638 1655 1688 1873 1944 1932 1837 1764 1763 1710 1665 1762 1894 1978 2004 2038 2014 1792 1766 1703 1519 1505 1516 1508 1462 1462 1467 1661 1761 1817 1616 1380 1295 1380 1431 1292 954 822 739 687 557 573 694 899 854 890 938 1082 1079 1018 1074 1026 1095 1156 1070 985 999 928 894 867 894 809 806 772 799 746 703 631 810 472 238 306 315 304 344 286 560 295 1
2154 1910 1936 1773 1688 1800 1774 1911 1894 2033 2056 2041 1955 1908 1935 1908 1871 1879 1966 2055 2103 2089 2065 1988 1841 1788 1687 1618 1602 1548 1639 1800 1834 1806 1957 1944 1746 1468 1365 1208 1146 1405 1464 1257 872 820 760 759 768 802 981 1056 1134 1219 1095 1176 1120 1140 1114 1029 940 926 895 831 804 862 838 521 742 771 874 833 842 671 428 411 459 372 388 331 286 183 228 282 52
1909 1998 1946 1868 1755 1817 1930 1833 1964 2030 2065 2106 2114 2016 2020 2128 2051 2008 2010 2198 2174 2119 2120 2118 2110 2054 1991 1770 1654 1582 1795 1945 1945 1965 1992 1927 1892 1863 1795 1666 1370 1470 1555 1383 1137 976 915 850 884 998 1095 1272 1365 1220 1206 1164 1140 1093 1090 862 869 924 845 826 818 769 705 773 760 860 892 944 922 666 676 532 454 440 417 374 355 315 274 245 90
1846 1895 1980 1946 1822 2062 1952 1871 1956 2126 2250 2293 2264 2265 2243 2252 2197 2161 2084 2119 2160 2132 2066 2071 2102 2203 2259 2224 2012 1816 1989 1967 1911 1981 2053 1958 1818 2128 1991 1829 1615 1446 1493 1272 1065 1031 985 1018 1021 1207 1486 1458 1333 1260 1228 1139 1077 1154 995 919 1001 1056 968 775 751 806 683 714 746 937 952 789 600 466 414 360 295 197 147 113 134 298 309 231 115
2042 1983 2030 2006 1855 2007 1984 2018 2112 2121 2182 2295 2349 2380 2342 2249 2230 2140 2096 2094 2083 2107 2108 2054 2004 1988 2042 2120 2167 2146 2115 2021 1964 1992 2000 2004 1955 2135 1996 1641 1774 1456 1351 1478 1406 1265 1144 1086 1283 1380 1341 1340 1280 1161 1184 1122 1008 963 1104 1068 1131 1017 1057 857 703 630 622 662 899 1062 899 713 559 464 409 438 302 353 490 640 300 75 29 251 163
1762 2128 2221 2172 2229 1878 2079 2156 2215 2242 2324 2376 2404 2352 2534 2378 2234 2269 2234 2141 2141 2130 2113 2084 2048 2001 2015 2052 2068 2094 2097 2085 2054 1964 1995 1858 1727 1699 1334 1572 1510 1395 1173 1402 1472 1446 1297 1113 1305 1177 1221 1232 1229 1214 989 862 990 1091 1072 1208 1202 1146 1116 796 556 706 741 756 803 876 806 592 553 436 360 400 347 923 1093 945 708 594 641 565 222
1787 1936 2239 2308 2227 1973 2145 2224 2348 2366 2341 2412 2428 2406 2552 2557 2440 2400 2268 2138 2174 2180 2073 2034 1999 1992 2018 2024 2079 2114 2088 2221 2393 2271 2221 2121 1806 1621 1725 1500 1480 1348 1225 1360 1340 1523 1559 1448 1302 1208 1175 1325 1380 1247 989 808 1066 1020 1316 1268 1161 1216 955 712 559 673 749 870 688 782 730 842 695 508 264 341 395 522 742 673 581 534 650 632 190
1733 1938 2191 2264 2117 2175 2092 2195 2271 2471 2351 2250 2468 2513 2520 2425 2439 2332 2177 2122 2172 2118 2022 2029 2068 2081 2094 2141 2244 2323 2294 2386 2429 2246 2208 2087 1946 1832 1877 1739 1694 1432 1476 1474 1155 1304 1480 1422 1291 1248 1345 1417 1246 1035 904 873 1111 1200 1390 1283 1120 1094 880 817 713 761 908 784 866 677 795 938 722 658 564 487 332 610 549 563 594 520 467 406 267
1809 1923 2045 2235 2252 2255 2307 2263 2320 2266 2096 2186 2235 2256 2340 2372 2260 2227 2175 2191 2207 2092 2107 2145 2150 2202 2216 2194 2272 2248 2254 2285 2275 2296 2312 2140 1975 1672 1749 1680 1601 1516 1415 1720 1411 1417 1383 1389 1378 1278 1214 1142 1233 1172 1119 1042 1211 1274 1432 1334 1116 1007 795 789 686 798 829 718 770 637 713 825 588 580 497 495 463 361 308 256 233 248 271 272 185
1907 1969 2076 2268 2277 2377 1590 1931 2146 2196 2220 2320 2212 2103 2332 2336 2292 2344 2236 2165 2054 2087 2152 2164 2258 2316 2257 2241 2313 2295 2270 2318 2436 2386 2317 2226 2118 2032 1978 1893 1845 1740 1742 1644 1541 1493 1466 1467 1311 1230 1231 1116 1120 1188 1169 1212 1082 1309 1417 1350 988 866 862 868 819 884 900 823 797 800 646 693 810 853 536 462 396 352 382 333 236 277 264 274 269
1605 1954 2004 2157 2252 1887 1737 1758 2147 1891 2190 2254 2294 2248 2117 2026 2376 2431 2155 2174 2191 2208 2292 2254 2283 2235 2210 2296 2372 2396 2381 2346 2376 2451 2430 2321 2198 2069 2006 1954 1888 1757 1760 1646 1585 1532 1467 1387 1225 1114 1051 1111 1170 1230 1253 1246 1173 1249 1443 1432 1070 923 925 917 808 1012 964 837 674 601 713 644 1090 810 593 486 402 364 346 327 329 336 345 341 429
1805 1955 1930 1996 1971 1909 2072 1986 2168 2156 2200 2321 2055 2118 1983 2101 2321 2335 2293 2240 2259 2297 2288 2261 2214 2246 2378 2430 2457 2438 2374 2314 2298 2330 2356 2273 2162 2126 2083 1962 1854 1899 1795 1695 1630 1530 1444 1243 1176 1218 1192 1204 1300 1310 1328 1300 1231 1490 1458 1517 1299 1045 1036 1010 985 1013 1010 924 684 713 677 1008 906 835 617 527 420 370 394 329 303 298 325 458 285
1693 1868 2111 2185 2079 1574 2139 2129 2538 2434 2354 2434 2458 2026 1739 2078 2123 2461 2390 2303 2330 2342 2365 2339 2276 2368 2432 2493 2518 2504 2467 2361 2275 2300 2294 2280 2262 2129 2064 2002 1919 1854 1835 1788 1607 1462 1274 1203 1190 1146 1110 1272 1250 1227 1255 1281 1523 1646 1616 1589 1532 1200 1037 953 937 959 1047 986 774 705 768 809 1132 762 664 580 497 410 359 324 307 369 552 498 285
1552 1838 1997 1399 2138 1808 2463 2360 2305 2222 2419 2248 2235 2122 2077 2106 2509 2491 2411 2482 2505 2435 2334 2394 2385 2421 2486 2474 2422 2410 2109 2394 2330 2220 2336 2301 2198 1791 2148 1961 1870 1915 1849 1749 1669 1477 1230 1165 1140 1141 1079 1118 1153 1234 1169 1347 1449 1476 1475 1672 1584 1355 1337 1153 936 908 1041 936 846 776 893 957 1010 714 686 579 442 366 326 322 452 520 438 410 430
1481 1591 1574 1334 1538 1711 1637 1540 2248 2235 2277 2246 2210 2110 1966 1993 2575 2492 2365 2495 2584 2489 2431 2461 2457 2504 2434 2482 2300 2301 2183 2202 2157 1982 2271 2128 2215 2143 1987 1937 1935 1814 1762 1763 1724 1561 1329 1290 1318 1327 1086 844 819 685 891 1089 1355 1405 1101 1647 1677 1654 1494 1301 1094 1074 1000 907 800 681 903 1134 1058 594 708 540 399 383 229 301 487 365 491 566 549
1311 1027 1109 1433 1687 1801 1759 1658 2130 2091 2264 2260 2233 1887 1597 2010 2250 2689 2660 2532 2650 2648 2507 2237 2378 2121 2496 2317 2165 2176 2006 1970 1924 1830 1911 1982 2013 2062 1980 1942 1990 1899 1804 1770 1706 1584 1517 1452 1391 1248 896 708 588 551 648 674 836 1107 923 1050 1656 1478 1621 1442 1239 1114 977 976 811 898 1123 865 872 706 638 613 435 348 446 384 352 628 640 591 570
984 876 977 1101 1196 1808 1998 1882 1926 2069 2296 2306 2279 2238 2034 2258 2213 2422 2537 2378 2458 2521 2227 2059 1957 1928 2029 1933 2207 2326 2252 2022 2175 1845 1840 1878 1974 1760 2086 1982 1824 1815 1819 1894 1814 1660 1472 1460 1556 1246 763 506 878 679 535 554 592 826 1042 1290 1526 1547 1560 1548 1392 1279 998 989 850 904 1144 946 746 555 601 538 486 360 298 496 713 716 601 621 571
835 743 643 1006 1718 1771 1870 1853 1965 2210 2266 2336 2353 2260 1880 2388 2151 2161 2546 2714 2351 2928 2238 2082 2002 2078 2099 2153 2658 2612 2509 2821 1531 1705 1683 2203 2413 1595 1664 1930 1932 1827 1706 1629 1851 1552 1372 1297 1393 1192 1306 847 602 545 472 505 542 725 1084 1467 1463 1730 1576 1516 1294 1242 1102 968 776 928 932 975 822 576 571 486 465 421 293 436 698 693 649 459 386
820 959 949 971 1532 1685 1801 2052 2142 2218 2174 2479 2323 2217 2087 1679 1823 2098 2128 2422 2355 2347 2292 2227 2158 2170 2185 2350 2406 2580 2541 2520 2348 2192 2205 2368 2497 2340 2426 2418 1474 1593 1919 1469 1418 1421 1663 1268 1346 1199 986 950 648 633 651 578 631 759 1067 1525 1646 1678 1653 1604 1433 1270 1126 1142 965 937 886 917 785 633 451 467 457 486 361 215 681 756 555 425 309
900 1302 1058 1221 1314 1712 1648 1773 2155 2060 2272 2424 2482 2421 2212 1839 1905 2012 2463 2412 2467 2530 2412 2364 2292 2290 2164 2143 2517 2549 2569 2570 2418 2373 2446 2412 2344 2238 2193 2009 1538 1642 1738 1387 1361 1430 1316 1311 1231 1128 1118 1278 1130 972 765 626 482 529 722 1149 1666 1758 1610 1462 1499 1460 1128 1120 1034 972 1196 995 1003 618 508 479 502 406 413 314 235 198 464 342 326
1172 1662 1212 1183 1097 1442 1572 1788 2026 2001 1892 2294 1902 2077 2087 2198 2377 2419 2214 2708 2840 2478 2308 2269 2327 2349 2221 2462 2318 2498 2459 2413 2346 2325 2163 2147 2200 2169 1802 1828 1470 1494 1723 1558 1692 1572 1333 1346 1423 1330 1248 1340 1169 833 705 642 722 658 717 645 1450 1570 1630 1432 1392 1400 1144 1083 1045 1117 1415 1284 1159 760 594 503 488 464 358 374 288 234 153 112 301
1137 1019 1245 1055 1439 1493 1724 1662 1906 1805 2027 2031 2053 1861 2404 2149 2546 2314 2261 2442 2494 2411 2330 2234 2134 2235 2322 2301 2409 2283 2204 2282 2221 2168 2033 1862 2076 1986 1931 1748 1603 1484 1610 1601 1840 1648 1322 1404 1797 1522 1267 1244 828 851 660 485 870 637 564 672 1180 1477 1599 1541 1628 1531 1189 1033 955 1308 1608 1402 1254 1657 634 597 551 514 421 436 350 316 200 102 260
1074 922 939 853 1364 1484 1584 1726 1963 1950 2088 2169 2003 2173 2245 2283 2219 2236 2335 2496 2339 2322 2143 2135 2065 2053 2284 2456 2290 2292 2205 2096 2052 1955 1774 2151 2024 1889 1903 1994 1974 1664 1540 1643 1533 1626 1689 1497 1515 1267 1303 1402 1195 1206 884 736 990 850 606 787 1084 1418 1648 1673 1666 1419 1220 1104 933 1106 1500 1450 1345 1139 1450 647 593 553 485 449 434 360 263 130 173
936 994 1062 1469 1547 1566 1584 1758 2001 1944 2024 2015 2218 2358 2131 2395 2320 2459 2382 2213 2165 2138 1937 1988 1994 2004 2154 2337 2301 2335 2237 2111 1811 1722 1685 2070 2107 1997 1931 1949 2049 2149 1816 1812 1831 1781 1681 1654 1572 1498 1333 1410 1263 1081 1026 873 729 845 734 796 970 1115 1411 1630 1547 1354 1004 1063 1004 972 1415 1412 1187 1132 933 1166 810 726 622 496 445 392 324 252 133
839 808 1403 1587 1843 1712 1721 1682 1730 1984 1899 1907 2065 1983 1972 2172 2147 2143 2153 2242 2063 1992 1740 1743 1718 1922 2020 1689 1142 1678 1908 1782 1584 1249 1147 1750 1926 1842 1932 2045 2181 2044 2137 1988 1842 1912 1917 1790 1633 1626 1619 1313 946 959 975 1050 836 684 888 792 1470 1229 1193 1350 1347 1060 1160 1158 1063 1178 966 1081 1106 1041 859 734 1051 1084 629 652 469 424 339 290 261
802 1053 1600 1721 1766 1697 1718 1841 2015 2146 2204 2181 2248 1925 1853 1849 2159 1990 1971 2186 2197 1777 1564 1708 1832 1892 1630 1638 1558 1281 1318 1143 1124 864 734 1024 1462 1676 2068 2129 2188 2107 1989 2021 2100 2102 2046 1940 2034 2004 1750 1294 1185 1099 972 1056 1184 1002 1051 967 826 896 908 1116 1061 1462 891 501 1190 1268 1381 1220 998 960 881 648 656 808 1168 962 764 542 462 344 304
1390 1476 1673 1752 1809 1908 1946 2027 2185 2256 2254 2227 2259 2049 2092 1990 2020 1951 1947 1960 1925 1669 1658 1727 1945 1805 1743 1765 1761 1589 1481 1335 1148 1185 1120 969 1088 1226 1729 2136 2145 2012 2003 2056 2023 2216 2219 2077 2061 1783 1538 1470 1468 1319 1147 1056 980 1027 1032 968 1233 1198 1226 1273 1188 1233 835 542 650 498 754 1221 1489 946 637 1106 840 738 878 1006 1341 712 570 490 331
1538 1682 1626 1371 1916 2115 2110 2263 2293 2353 2448 2435 2395 2247 2208 2145 2146 1997 1916 1909 1812 1748 1931 2081 1989 1908 1800 1708 1550 1592 1542 1606 1478 1452 1251 1123 914 934 1519 1892 1871 1909 1957 1988 2018 2032 2060 1865 1681 1596 1524 1497 1584 1444 1406 1046 958 968 1110 1020 1098 1177 1245 1267 1462 1520 1330 1137 997 529 464 364 400 804 1176 1195 1239 1105 842 964 1297 1423 959 589 464
1497 1457 1233 1134 1374 1908 2118 2218 2396 2396 2505 2480 2326 2294 2267 2062 2026 1914 1910 1862 1809 2092 2318 2246 1995 1667 1519 1793 1825 1765 1557 1515 1568 1491 1341 998 1076 1187 1302 1698 1767 1918 1938 1976 2010 1941 1958 1841 1707 1585 1547 1679 1826 1616 1752 1519 1358 1057 1030 1006 849 770 975 1113 1326 1358 1399 1509 1456 1213 960 711 754 620 801 903 1336 939 844 919 1290 1410 1552 1047 818
1563 1535 1227 1180 998 1430 2217 2290 2440 2397 2542 2414 2399 2260 2302 2377 2320 2295 2139 2128 2200 2230 2052 1614 1299 1060 1026 1053 1219 1319 1289 1365 1408 1438 1276 1339 1366 1365 1185 1394 1377 1711 1892 1948 1910 2027 1963 1805 1734 1691 1674 1572 1384 1294 1486 1616 1619 1475 1254 956 827 721 541 664 787 738 880 1053 1076 1106 1078 779 680 815 915 1191 1398 1269 913 837 925 1038 1171 1483 1327
1587 1440 1328 1333 1371 1353 1762 2287 2572 2572 2532 2449 2348 2487 2545 2591 2477 2393 2241 2305 2133 1498 1305 966 801 890 914 849 932 1292 1248 1262 1366 1433 1462 1408 1272 1117 1109 1115 1261 1610 1695 1784 1737 1770 1830 1658 1348 1799 1772 1623 1494 1293 1346 1589 1455 1321 1222 1220 1157 899 894 1132 497 544 595 644 585 559 748 621 608 614 1086 1199 1466 1562 1366 669 979 899 926 1035 1424
1605 1470 1302 1334 1441 1396 1280 1922 2569 2568 2501 2426 2699 2641 2506 2471 2327 2220 2319 1969 1472 1441 1323 1137 1228 1268 1138 1066 990 1029 1054 1162 1270 1372 1252 1274 1168 1145 1100 1054 1280 1540 1617 1636 1714 1478 1561 1656 1140 959 1448 1569 1600 1615 1463 1348 1203 1051 882 837 1164 1120 1309 1263 1001 1218 1078 817 920 553 370 424 423 508 755 861 913 1139 1549 1428 767 599 842 1007 1010
1603 1401 1182 1281 1225 1204 1360 1726 2276 2278 2389 2705 2765 2464 2385 2289 2262 2292 1776 1385 1348 1138 1312 1267 982 806 775 751 874 996 1034 1160 1259 1299 1336 1363 1203 1143 1038 1046 1267 1507 1544 1503 1454 1597 1576 1366 1151 754 1116 1511 1792 1686 1477 1203 1100 944 788 836 928 872 1051 987 881 891 717 585 586 550 572 670 658 695 846 808 896 781 1024 893 1575 1823 1587 742 1028
1494 1293 1079 1068 1238 1416 1457 1861 2404 2496 2638 2785 2671 2199 2064 1993 2135 1778 1478 1362 1277 1205 1070 1097 835 908 667 629 751 967 1061 1024 1032 1138 1225 1292 1351 1025 995 1096 1469 1575 1634 1373 1682 1587 1452 1306 1436 960 1000 990 1084 1210 1284 1204 1123 1080 878 787 933 1020 999 935 813 694 675 746 602 572 498 475 704 1078 1108 1265 1163 954 1331 1331 1386 1167 1499 1369 702
1323 1073 1150 1037 1214 1481 1668 2109 2375 2589 2687 2449 2268 2210 2252 1986 1806 1729 1714 1464 1317 1199 1039 958 968 894 794 827 822 884 892 891 866 900 1008 1194 1118 861 963 1274 1474 1603 1699 1566 1365 1180 1232 1136 883 979 928 776 791 808 841 1053 1022 1057 844 662 840 836 1021 649 915 1088 854 395 369 286 216 334 571 844 1025 1142 989 1032 1192 1474 1530 1338 1482 1498 1228
1360 1387 1252 1186 1443 1679 1936 2109 2308 2575 2363 2417 2364 2295 2196 2025 1864 1635 1450 1324 1452 1462 1257 892 721 689 814 762 698 743 802 807 787 749 766 937 984 991 1211 1472 1520 1553 1319 1109 1015 923 908 879 866 801 770 843 793 727 701 889 1058 1079 713 1133 1080 734 828 765 799 676 328 263 192 121 240 487 484 577 436 364 460 557 700 1017 1105 1091 973 1054 947
1380 1378 1240 1275 1244 1743 1999 1991 2142 2234 2189 2317 2081 2092 1858 1405 1558 1194 1190 663 890 881 656 380 284 421 466 658 714 804 923 892 873 880 953 999 1078 1139 1035 1184 1368 1178 1122 1139 1133 1160 1232 1301 1325 1062 797 760 723 750 842 919 1367 1066 1254 993 955 724 728 1156 793 544 381 270 284 275 265 233 137 146 266 311 319 398 576 855 1002 895 955 943 758
1238 1204 1299 1282 1165 1602 1878 1905 1939 1997 2103 2145 1757 1821 1429 1114 816 756 675 640 796 684 446 242 70 344 450 504 695 716 845 982 995 1017 1064 1012 1141 1223 1180 1186 1337 1148 1250 1095 955 1004 950 1257 1211 1162 1131 799 660 646 774 971 1248 1173 998 943 968 845 393 562 812 468 572 444 215 55 163 107 4 0 3 2 33 258 445 642 826 950 888 1135 1104
1246 1012 1101 1155 1188 1567 1861 1931 1934 1926 1840 1609 1638 1409 1110 820 713 658 582 532 648 543 376 172 332 314 169 349 454 768 1038 1075 1112 1187 1205 1157 1155 1138 1136 1128 1147 1123 1091 1165 1028 886 955 1176 1130 1078 911 1234 1154 973 756 869 1043 832 989 622 321 547 641 486 575 394 446 0 0 0 0 0 0 0 0 0 3 121 147 102 285 342 648 853 944
1374 1228 1140 1121 1242 1678 1895 1980 1989 1735 1195 1276 1399 1075 782 618 605 759 864 982 1028 929 801 387 191 283 107 0 0 387 470 869 1177 1095 1028 1028 1044 1063 1083 1126 1085 1104 1146 1147 1154 892 893 1062 1000 1155 1032 1144 1233 966 878 581 894 635 1071 1567 1291 853 645 787 497 290 81 32 0 0 0 0 0 0 0 0 0 0 0 0 0 0 53 376 746
1409 1239 1155 1226 1426 1835 1917 1998 1911 1360 1026 1005 1060 820 789 789 1073 1322 1284 1110 956 372 90 75 112 0 0 6 0 0 0 671 954 1135 1159 1063 1056 1068 1083 1200 1143 1102 972 1007 970 972 950 1090 1166 1334 1206 1038 1027 1112 850 677 468 495 445 608 628 1028 780 605 272 224 106 0 0 0 0 0 0 0 0 0 0 0 0 0 0 0 0 5 151
1967 1466 1305 1412 1628 1812 1943 1890 1493 1127 829 735 789 903 930 996 1108 947 828 882 688 168 123 46 6 0 0 0 0 0 0 69 619 1133 1552 1109 1085 998 1076 1101 1021 933 925 980 996 947 922 1218 1260 1281 1074 972 990 1130 926 602 1002 734 397 550 518 686 824 888 530 134 280 10 0 0 0 0 0 0 0 0 0 0 0 0 0 0 0 0 0
2244 1787 1529 1587 1662 1858 1910 1581 1166 950 687 501 731 772 946 929 976 723 406 162 161 82 28 3 0 0 0 0 0 0 2 2 106 692 1063 1373 1302 1185 1018 988 1064 1131 1014 978 1032 974 998 1061 1112 1104 1162 1092 1210 1213 1071 862 910 796 662 791 916 870 713 960 990 601 18 0 0 0 0 0 0 0 0 0 0 0 0 0 0 0 0 0 0
2010 1805 1525 1379 1688 1896 1884 1262 977 794 638 458 612 597 710 734 781 764 520 216 168 96 65 0 0 10 0 0 0 4 2 58 24 86 324 621 935 1093 1110 977 1152 1016 957 1053 915 944 1007 1120 1115 1331 1299 1336 1270 1146 1261 1034 1114 991 1199 764 368 401 450 86 0 0 0 0 0 0 0 0 0 0 0 0 0 0 0 0 0 0 0 0 0
1416 1552 1271 1441 1330 1350 1440 1225 947 793 469 395 454 474 506 657 709 645 667 410 387 298 169 49 0 15 3 0 4 0 0 0 20 3 12 88 316 461 780 826 899 732 593 707 1000 841 728 635 543 778 941 988 1105 985 883 889 1018 1040 746 265 34 27 2 0 0 0 0 0 0 0 0 0 0 0 0 0 0 0 0 0 0 0 0 0 0
Wind_Speed
31 33 32 33 33 34 36 36 38 41 45 46 46 46 48 49 43 38 35 34 36 37 37 37 38 38 36 35 33 31 31 31 31 31 31 30 29 28 27 26 25 26 28 28 27 27 25 22 20 18 18 17 16 16 16 17 19 20 21 20 20 20 19 18 20 21 20 23 22 22 21 20 20 19 17 17 17 16 14 12 nan nan 14 16 16
35 32 31 33 33 35 36 37 39 42 46 47 48 48 47 48 45 40 36 34 35 38 38 39 38 36 36 34 32 31 30 30 31 31 31 30 30 29 28 26 25 25 26 26 27 26 25 22 20 19 18 17 17 16 17 18 19 20 20 20 19 20 22 21 21 22 21 22 22 22 21 20 19 19 18 17 16 15 nan nan nan nan nan nan nan
34 32 31 34 34 35 35 37 39 42 45 47 48 48 47 47 44 40 38 37 37 37 38 40 38 36 34 34 32 31 30 30 31 31 30 30 30 29 28 27 26 26 26 25 26 26 25 23 20 19 20 18 16 17 18 19 19 19 19 20 19 19 19 19 20 21 22 22 22 22 22 21 19 18 17 16 nan nan nan nan nan nan nan nan nan
35 32 32 34 36 35 36 38 40 42 45 47 47 47 48 47 42 38 37 37 38 38 39 38 37 35 33 33 32 31 31 30 30 30 30 30 30 29 28 27 27 27 26 25 25 24 23 22 19 19 19 18 16 17 18 19 19 19 20 20 19 19 19 19 20 20 21 21 20 18 16 16 17 18 18 17 16 15 16 16 18 18 nan 18 nan
36 34 33 33 34 36 38 40 42 44 44 47 48 50 49 44 39 37 39 39 40 39 39 37 36 35 34 34 33 31 31 30 29 30 29 29 29 29 29 28 29 28 27 27 26 25 24 22 19 18 19 18 17 17 18 19 20 20 20 20 19 19 20 20 19 19 18 19 17 15 16 16 16 18 17 17 17 16 16 17 17 18 19 nan nan
37 35 34 33 34 37 40 42 44 45 46 47 50 53 50 44 40 40 41 40 39 39 38 38 38 36 35 35 34 32 30 30 29 28 26 26 25 27 28 29 30 29 29 27 25 24 24 22 19 18 18 18 17 17 19 21 21 21 20 19 19 19 20 19 18 17 17 16 15 16 15 16 15 14 17 17 16 14 15 17 18 18 18 nan nan
38 35 34 34 34 37 41 43 45 45 45 46 48 49 47 44 43 43 41 39 39 38 37 38 38 36 36 35 33 31 29 29 28 28 27 25 26 25 26 27 29 30 28 27 26 25 24 23 20 18 17 18 17 18 19 22 22 21 20 19 19 19 19 19 18 16 13 13 14 15 15 15 14 13 17 16 16 16 15 16 17 18 19 19 nan
36 34 35 34 34 39 41 44 46 45 45 46 47 47 46 43 41 38 36 36 36 35 35 35 37 36 35 33 32 30 28 27 27 28 27 26 27 26 24 25 28 28 28 27 26 25 24 23 21 19 18 18 19 18 19 21 22 21 19 18 18 19 19 19 18 15 9 14 14 15 15 14 14 12 15 15 15 15 15 15 16 17 18 19 nan
37 37 36 35 37 43 43 44 45 47 46 46 46 47 45 42 39 35 35 36 35 34 33 34 35 35 34 32 31 29 27 27 27 27 26 26 26 24 22 23 26 26 25 25 26 24 23 23 22 20 19 19 20 19 19 19 20 20 17 17 18 19 19 18 16 14 13 14 14 14 15 15 14 14 15 15 15 15 15 15 16 17 18 18 nan
38 37 36 36 39 43 44 45 45 46 45 44 46 46 43 40 37 36 36 36 34 32 33 33 33 32 32 31 29 28 27 26 26 26 25 25 23 24 26 25 25 24 24 25 25 24 22 22 22 22 20 19 20 19 18 17 18 18 17 16 16 17 18 18 16 13 15 15 15 14 13 12 13 14 15 15 14 13 11 11 14 15 16 19 20
39 37 37 38 43 44 46 47 48 47 46 44 45 44 41 39 39 39 38 36 33 31 31 31 31 31 30 30 29 28 27 26 26 25 26 26 26 26 27 26 24 24 24 24 25 24 23 22 23 22 22 21 20 19 17 17 17 19 17 16 16 16 18 18 14 16 16 16 15 13 14 11 11 12 15 15 15 14 14 15 14 nan nan 18 19
40 40 40 41 47 46 47 49 49 48 47 45 43 42 40 41 41 42 39 35 32 29 29 28 28 29 29 29 29 28 27 27 27 28 28 28 28 27 26 26 24 22 23 24 24 25 24 23 24 22 22 21 21 20 19 18 18 20 18 16 16 17 18 17 14 17 17 16 16 14 14 13 13 14 15 14 14 16 16 14 14 15 16 17 18
42 42 42 44 47 48 49 49 49 49 47 47 45 42 39 39 41 42 40 35 31 28 27 25 25 26 27 28 29 29 29 29 29 30 30 30 30 29 28 26 25 24 23 24 25 26 26 26 24 22 21 21 22 23 22 19 22 20 19 17 17 19 19 17 16 17 17 17 16 15 14 12 13 15 13 14 14 14 14 14 15 15 16 16 17
43 43 44 46 46 51 50 49 49 47 46 46 43 39 35 33 34 39 41 37 31 26 23 22 23 24 26 28 29 29 30 30 31 32 31 31 30 29 28 27 25 25 24 23 24 27 27 26 24 23 22 22 22 21 21 20 23 21 20 20 19 20 20 16 16 17 17 17 16 16 15 14 14 16 15 14 13 14 13 13 13 14 14 14 15
44 45 46 47 47 47 50 48 47 44 42 42 42 38 32 30 31 35 38 35 29 23 19 20 22 25 27 29 30 31 32 32 33 33 32 29 29 29 28 28 26 25 25 24 24 27 29 28 27 25 23 22 21 20 21 22 23 22 23 22 22 21 17 16 15 17 17 16 16 16 16 14 14 11 15 14 12 13 12 11 11 12 13 13 14
47 47 47 47 47 46 44 44 44 41 37 35 36 38 36 31 29 31 34 31 27 20 18 20 22 26 28 29 30 32 33 34 34 34 32 29 29 30 29 27 26 25 26 25 25 27 29 30 28 26 24 22 21 20 21 23 23 24 24 24 23 22 18 16 16 17 17 16 15 15 16 16 13 13 16 15 13 12 13 12 11 11 12 12 13
47 47 47 47 46 44 39 35 34 34 31 31 34 38 39 36 26 23 28 28 25 21 19 21 23 26 28 30 31 32 33 35 35 34 32 31 31 31 27 24 23 24 25 26 27 28 29 30 28 26 24 23 22 21 20 22 24 24 25 24 25 24 21 17 18 18 17 17 15 15 15 16 14 14 16 15 15 13 13 13 12 11 10 11 12
46 46 46 46 44 40 33 29 29 27 27 29 31 35 36 32 23 19 21 25 26 24 21 23 25 27 30 32 33 34 34 35 34 34 34 34 34 32 28 24 23 24 24 26 28 29 30 29 28 28 27 25 24 23 23 23 24 25 25 25 25 25 23 19 19 19 19 17 17 15 15 18 17 16 16 16 16 15 14 13 12 11 11 11 12
44 44 43 43 38 32 27 25 25 25 26 22 22 26 28 24 20 18 21 27 29 27 25 25 26 28 30 32 33 34 34 33 33 33 35 35 34 32 30 29 28 27 26 26 27 30 30 29 28 29 29 29 28 27 27 27 28 27 26 25 26 25 24 19 19 19 20 18 18 17 17 17 14 17 17 17 17 16 15 15 14 13 12 12 11
42 42 40 36 29 25 22 21 20 21 20 17 18 20 23 25 23 22 25 29 30 28 26 26 27 29 31 32 32 31 31 30 32 32 33 32 29 28 30 30 30 29 28 28 29 30 30 29 28 28 29 29 29 29 29 30 31 31 29 27 25 25 21 20 21 20 20 20 19 18 21 14 17 17 18 17 16 17 16 15 15 14 12 12 12
36 37 32 28 21 23 23 19 16 18 18 17 16 19 23 25 24 25 27 28 28 27 26 27 28 29 30 31 29 28 29 29 29 30 32 29 28 28 28 29 29 28 28 28 29 29 30 30 29 29 29 30 29 30 30 31 33 33 32 29 26 22 22 22 21 21 20 21 20 21 21 18 16 19 19 18 17 17 17 16 15 14 14 14 13
30 32 25 20 20 21 21 20 17 18 18 16 16 19 21 23 23 22 23 24 25 25 25 25 26 28 31 30 29 29 29 29 30 31 29 28 27 28 28 28 28 28 28 27 27 27 29 30 29 29 28 28 28 27 28 30 34 34 34 31 25 25 25 23 22 22 22 21 20 24 20 20 17 20 20 20 18 17 19 16 17 16 15 15 15
28 26 20 18 17 15 16 15 15 14 15 15 16 19 22 23 23 21 20 21 22 23 23 25 26 28 29 29 29 29 30 31 30 29 27 27 26 26 27 27 27 27 26 26 26 26 27 30 31 30 29 25 26 27 28 29 31 33 32 31 29 27 27 25 23 23 22 23 21 26 22 21 19 21 22 21 21 19 17 21 19 17 18 17 17
28 23 16 14 12 13 12 12 13 14 14 14 16 19 20 21 19 19 20 21 22 22 24 26 28 29 29 28 29 29 29 29 29 31 29 26 24 24 24 25 25 24 23 21 24 25 29 32 32 29 25 25 26 26 27 27 29 31 32 32 30 30 27 26 24 24 23 24 23 26 23 23 20 23 23 22 23 21 18 19 20 21 20 17 18
26 20 17 21 16 13 12 10 11 14 15 15 16 18 19 19 19 20 21 22 22 23 26 27 28 29 29 28 28 28 28 27 26 26 25 25 23 22 21 19 19 20 19 18 19 22 23 26 27 26 26 25 25 25 25 26 27 30 31 32 31 29 27 26 25 24 24 24 26 25 24 24 23 24 24 24 24 22 20 20 24 24 23 20 18
20 16 19 18 15 19 14 10 10 12 13 15 16 18 19 19 20 21 23 23 24 24 26 27 27 28 27 26 27 27 27 26 25 24 23 22 22 21 20 18 18 18 17 18 18 20 23 24 25 26 25 24 23 24 24 25 26 28 29 30 29 28 26 26 26 25 25 25 26 25 27 27 27 26 25 25 25 24 23 23 23 23 24 21 21
16 16 18 14 17 25 18 10 11 12 13 13 15 18 18 18 20 21 22 22 23 24 24 25 25 26 25 26 26 25 24 24 22 22 22 21 20 20 20 18 18 18 18 17 19 19 21 23 23 24 24 23 22 22 22 25 26 27 28 29 29 27 26 26 27 27 27 26 27 26 28 28 29 28 27 27 26 25 25 25 24 24 23 22 22
14 14 13 14 21 25 17 11 10 12 13 14 15 16 16 18 19 20 20 21 21 21 22 23 24 25 24 24 23 23 22 21 21 21 21 20 19 19 19 18 18 19 18 17 18 18 20 21 22 23 23 23 23 22 22 23 25 28 26 27 27 26 25 27 29 30 28 27 26 26 27 29 31 31 29 29 28 25 25 26 25 25 24 22 23
11 11 11 14 19 21 16 11 11 13 13 13 14 16 17 18 18 19 19 20 19 19 21 22 23 23 22 22 21 21 20 20 20 20 20 18 18 18 17 16 17 18 18 17 16 17 18 19 20 21 22 24 24 24 22 23 24 24 24 21 25 26 26 27 28 29 28 27 25 29 28 29 31 32 33 30 29 27 26 26 26 25 25 23 24
13 14 13 12 15 19 16 12 11 12 12 12 13 15 17 17 18 18 18 19 20 20 20 21 21 21 21 21 19 18 19 19 19 21 18 16 16 16 14 14 15 15 14 14 13 14 16 18 20 21 22 23 25 25 22 23 24 25 25 25 28 29 28 27 27 27 26 26 26 27 30 30 29 30 32 30 29 29 29 28 27 26 26 25 24
17 16 12 11 14 17 14 11 9 10 10 11 13 16 16 17 17 17 18 19 20 20 20 20 20 20 24 23 19 16 18 20 23 20 14 13 14 13 11 11 12 12 10 9 9 10 12 15 19 22 22 22 23 24 23 24 26 26 26 27 26 29 28 28 26 26 26 27 27 27 27 29 29 29 30 30 31 31 29 29 28 27 26 25 24
16 16 12 11 14 16 13 9 8 8 9 12 15 17 16 16 17 17 18 19 20 19 19 20 20 24 22 19 17 17 19 19 23 22 19 13 11 7 10 10 10 10 7 5 5 5 7 10 14 18 20 20 21 23 22 22 23 24 26 28 28 27 25 26 22 25 30 29 28 27 25 25 27 29 29 30 31 33 32 29 29 28 27 25 25
17 18 16 13 13 15 12 10 8 8 11 14 15 14 14 15 17 17 17 18 19 19 18 18 21 23 17 17 17 17 17 17 19 20 19 17 12 5 5 9 10 11 7 5 6 7 7 8 11 13 14 14 15 18 20 22 23 24 26 27 26 27 26 26 25 25 28 25 19 23 26 26 26 27 26 27 29 31 33 33 31 29 28 27 27
20 24 23 16 16 14 13 11 8 8 11 12 12 13 14 15 16 17 17 18 18 17 16 16 19 20 14 14 16 15 15 15 17 19 18 18 15 7 4 8 11 12 12 10 9 8 9 9 10 11 11 10 11 14 18 21 22 23 25 26 27 27 25 26 27 27 28 25 22 21 23 24 26 27 26 27 28 30 32 32 33 33 29 29 28
23 29 31 28 22 11 11 9 6 7 9 10 11 12 14 15 16 18 18 18 18 16 15 15 16 16 13 11 13 14 15 14 15 16 18 15 15 11 4 8 11 13 14 12 10 10 10 10 9 11 9 8 12 16 17 17 18 20 21 21 24 26 26 26 26 27 27 28 25 24 23 23 24 24 25 25 26 27 30 33 34 34 32 27 27
18 19 22 25 25 20 8 7 5 6 8 10 10 11 13 15 17 18 18 18 17 16 15 13 12 12 11 9 10 13 15 16 15 16 16 13 12 12 7 9 11 13 14 13 10 10 11 11 11 12 9 9 13 14 15 16 16 17 18 18 20 22 23 22 23 26 27 27 27 26 26 26 24 24 23 23 24 26 29 28 30 32 30 30 27
14 13 16 20 20 19 20 7 2 5 8 9 9 11 14 16 17 17 18 18 17 17 16 15 14 13 12 11 10 11 14 16 16 16 16 13 13 12 9 11 14 15 16 14 12 11 11 12 14 14 11 9 10 15 15 15 16 16 17 17 18 20 20 20 21 21 23 25 26 27 27 29 30 28 27 26 25 24 26 26 26 27 27 27 28
9 10 12 13 12 11 5 10 3 4 8 9 10 12 14 16 17 17 18 18 18 17 16 16 15 14 13 13 12 11 12 13 14 18 16 15 15 13 12 16 18 18 18 16 14 12 11 13 16 17 12 10 11 14 15 14 14 15 16 16 17 17 17 18 20 19 20 23 25 27 28 28 29 29 29 29 29 28 26 26 25 23 25 26 26
7 10 13 14 14 6 8 10 6 4 8 10 12 15 17 17 17 17 19 19 19 18 16 16 15 15 14 13 13 13 13 13 14 14 14 14 15 15 16 19 20 20 20 18 17 15 15 14 17 18 13 11 12 14 15 15 14 14 14 16 15 16 16 17 18 19 20 22 24 26 26 28 28 29 29 29 30 29 28 26 26 27 28 28 25
9 10 11 15 16 11 11 13 9 8 10 13 14 16 16 16 16 16 18 19 19 18 17 16 15 15 15 14 13 14 14 14 14 13 13 14 15 17 18 19 20 21 21 20 19 17 16 17 19 21 19 16 14 15 16 16 16 16 16 15 15 15 16 17 17 17 18 21 23 25 27 27 27 29 29 30 30 30 28 27 28 28 28 29 26
10 11 11 14 16 18 18 19 15 13 14 16 16 16 16 16 14 13 16 18 19 19 19 17 15 14 14 15 14 13 14 14 14 14 14 14 16 18 19 20 20 21 22 22 22 22 20 20 20 20 21 19 17 16 16 16 17 17 15 16 16 16 16 17 16 16 19 19 18 21 23 25 24 27 30 30 28 25 26 28 29 29 28 27 26
11 12 13 15 16 19 23 20 18 17 17 18 19 17 15 14 13 13 16 18 18 18 19 17 15 14 14 14 14 13 12 13 14 14 14 14 16 18 19 20 20 22 24 24 25 24 24 22 22 23 20 18 18 18 17 17 17 16 17 17 18 18 17 17 16 19 19 18 17 16 18 20 23 25 27 26 24 22 23 26 27 28 28 27 27
12 15 19 21 21 20 19 17 19 20 18 18 19 18 16 15 13 14 16 17 15 15 16 16 15 13 12 13 13 13 12 11 13 15 15 15 15 17 19 21 20 23 24 24 24 24 24 24 23 24 23 20 20 19 19 15 18 19 19 18 18 18 18 18 20 22 20 19 16 15 14 16 20 23 24 22 22 21 22 24 26 26 27 27 27
10 15 18 19 19 18 17 18 21 21 19 17 18 20 20 19 18 16 16 15 15 14 15 15 nan 15 14 11 12 14 14 13 13 14 15 16 17 18 19 20 22 23 23 24 23 23 23 23 24 24 25 25 21 20 19 19 18 20 20 18 20 18 22 22 21 22 21 22 19 nan 15 16 nan nan nan nan nan 22 21 24 26 26 27 28 28
10 13 14 15 16 17 17 18 20 20 19 19 20 22 23 22 19 18 17 18 17 14 15 16 15 16 16 14 12 13 15 15 14 14 15 16 18 18 19 20 21 21 22 23 23 22 22 23 24 25 23 23 23 22 22 21 21 18 21 23 21 19 22 24 23 24 21 nan nan nan nan nan nan nan nan nan nan 24 24 26 26 27 28 29 30
11 12 12 13 14 14 15 16 18 18 18 19 21 22 22 22 20 19 17 16 17 16 16 17 16 16 18 nan nan 15 16 17 16 16 16 17 18 18 19 20 21 20 21 22 22 23 22 21 22 22 23 23 24 25 24 23 23 22 19 19 19 20 23 22 20 24 nan nan nan nan nan nan nan nan nan nan nan nan nan nan nan nan nan 31 31
11 14 14 14 14 14 14 15 15 15 17 19 20 20 21 20 20 19 18 18 18 16 nan nan 17 nan nan nan nan nan nan 18 17 17 17 18 19 19 19 20 21 21 20 20 22 22 23 23 23 22 24 25 25 24 25 25 25 25 23 22 20 20 24 24 23 25 25 nan nan nan nan nan nan nan nan nan nan nan nan nan nan nan nan nan 34
15 17 17 16 16 16 16 15 15 15 16 18 19 19 20 19 19 19 19 17 17 18 17 nan nan nan nan nan nan nan nan nan 16 16 17 18 18 19 19 20 21 21 20 20 21 22 23 23 22 22 23 23 23 23 24 23 24 26 25 24 24 24 24 23 23 21 25 nan nan nan nan nan nan nan nan nan nan nan nan nan nan nan nan nan nan
18 19 19 18 17 17 16 14 14 15 15 17 18 18 18 19 19 20 21 18 20 nan nan nan nan nan nan nan nan nan nan nan 16 16 16 17 17 17 18 19 20 21 21 22 22 23 22 22 21 21 21 22 21 23 23 23 24 26 26 24 24 24 25 24 24 24 nan nan nan nan nan nan nan nan nan nan nan nan nan nan nan nan nan nan nan
32 34 31 24 20 18 15 13 13 12 13 15 15 17 17 18 18 19 22 21 21 nan nan nan nan nan nan nan nan nan nan nan nan nan 16 16 17 17 17 19 20 21 22 23 24 23 22 22 21 20 21 22 22 23 23 24 24 25 23 24 23 23 24 nan nan nan nan nan nan nan nan nan nan nan nan nan nan nan nan nan nan nan nan nan nan
36 40 35 33 32 24 14 12 13 13 13 14 15 17 17 18 19 21 23 25 24 24 24 nan nan nan nan nan nan nan nan nan nan nan nan nan 17 16 17 19 21 22 23 23 23 24 24 24 23 23 23 23 23 24 25 24 24 23 22 21 nan nan nan nan nan nan nan nan nan nan nan nan nan nan nan nan nan nan nan nan nan nan nan nan nan
Wind_Direction
302 300 298 298 298 297 297 297 296 295 297 298 301 304 308 311 308 306 305 303 304 305 308 311 313 314 313 313 313 313 311 309 308 307 305 305 304 303 304 306 310 311 309 310 309 307 309 307 303 301 297 292 291 289 286 288 289 276 280 284 285 288 294 289 287 285 281 279 280 276 273 270 272 275 279 276 265 255 248 251 nan nan 250 248 240
302 298 295 296 294 293 294 294 294 294 296 298 301 304 306 309 309 307 305 304 304 307 310 311 312 311 311 312 312 312 310 309 308 307 306 306 304 303 303 303 305 306 306 308 306 306 307 306 304 301 297 293 290 287 284 284 285 276 279 281 283 283 286 286 283 282 278 271 272 274 273 272 274 280 283 278 271 265 nan nan nan nan nan nan nan
293 293 291 292 292 291 292 292 293 294 295 297 301 304 306 308 308 307 305 306 305 307 309 310 310 309 310 311 312 311 309 309 308 307 307 306 305 303 303 303 303 304 306 306 306 304 304 303 300 298 295 292 288 286 284 283 282 281 283 283 281 281 274 278 280 279 277 275 273 274 275 275 277 281 281 280 nan nan nan nan nan nan nan nan nan
290 287 287 289 291 290 291 291 292 293 295 298 301 304 307 308 306 303 302 302 304 306 308 308 308 309 310 311 311 310 309 309 308 307 306 305 304 304 304 305 304 303 302 301 301 301 300 302 300 296 294 290 286 284 284 284 283 282 285 288 285 281 280 280 281 277 276 273 276 282 279 281 284 284 286 286 281 273 261 254 247 247 nan 252 nan
287 285 285 287 290 291 291 291 292 294 295 299 303 306 307 306 301 298 299 300 301 303 305 307 308 308 309 311 310 309 308 307 307 306 306 306 305 307 307 305 303 302 301 300 299 297 295 295 294 292 291 289 285 283 282 284 285 283 284 285 282 285 288 285 280 276 270 270 274 280 278 280 279 280 281 281 277 274 267 257 251 249 256 nan nan
286 285 285 286 288 291 291 292 293 294 296 299 304 307 308 305 300 298 299 300 301 302 304 307 307 309 310 310 310 309 307 306 306 303 300 302 304 306 306 306 305 304 302 301 300 297 295 294 293 291 288 284 283 281 282 284 283 281 278 280 287 288 284 281 280 277 273 271 277 272 277 278 281 283 284 282 281 279 274 265 256 251 255 nan nan
287 285 287 286 286 289 291 292 294 295 296 300 302 304 304 302 301 301 302 302 303 304 305 307 307 308 309 309 309 308 306 305 303 299 298 298 297 303 305 306 305 304 302 300 298 295 293 291 288 287 286 283 281 280 283 284 283 282 278 281 283 285 281 280 280 279 278 290 274 274 275 277 280 281 283 285 284 281 277 266 258 253 253 250 nan
282 284 287 287 287 292 292 293 294 295 297 300 302 302 299 297 297 297 297 298 301 301 301 303 304 306 307 307 307 307 306 302 300 297 296 297 300 303 306 307 302 303 302 299 295 292 290 289 286 282 282 281 281 281 283 282 284 279 275 277 281 283 283 282 281 280 277 285 280 275 275 276 277 278 287 285 285 282 276 269 262 257 252 251 nan
284 287 289 288 291 295 293 293 295 297 299 301 302 301 296 293 294 293 293 295 296 297 298 299 300 302 303 304 304 303 301 299 298 298 298 300 302 306 305 297 298 300 298 296 294 292 289 286 282 279 280 282 281 281 280 281 280 278 277 275 277 282 285 281 282 295 298 289 285 281 280 279 279 278 285 286 283 278 278 276 269 263 254 252 nan
284 286 288 289 291 292 292 293 294 296 297 299 299 298 294 291 290 288 290 291 291 292 294 295 295 295 295 297 298 298 298 298 299 301 302 303 300 294 293 296 300 299 298 295 292 290 287 283 280 275 272 275 277 276 276 275 277 275 274 268 270 276 280 285 286 288 290 292 289 285 277 276 280 280 286 286 284 280 272 259 250 249 256 256 253
285 286 288 288 292 291 292 293 293 294 296 297 297 296 292 289 288 287 286 286 286 287 289 291 292 292 293 293 293 294 296 298 300 301 303 299 301 298 299 299 300 301 299 296 292 288 285 281 276 274 270 265 264 267 267 265 264 262 259 261 266 275 282 284 302 290 290 291 290 292 287 280 284 285 288 289 289 287 279 272 268 nan nan 256 254
287 289 290 290 292 292 292 292 292 294 295 296 296 292 289 288 287 284 282 280 279 280 282 285 288 291 291 291 291 293 295 298 299 300 300 299 298 299 299 297 298 293 292 291 290 288 284 278 274 270 267 264 262 258 256 256 255 255 256 257 264 278 286 288 288 287 289 290 290 293 294 293 291 287 291 292 293 289 286 280 271 261 253 252 254
290 292 293 295 297 295 293 292 293 294 293 295 294 287 284 286 285 284 279 274 270 270 276 281 286 288 289 291 292 295 297 298 297 299 300 300 299 299 297 297 295 292 286 284 286 285 281 274 269 267 264 260 255 252 250 248 248 253 254 257 266 277 283 289 283 285 286 288 292 294 291 288 292 296 300 296 293 290 280 276 271 264 257 255 252
294 295 296 297 296 297 295 295 294 294 292 292 291 281 275 273 277 282 278 269 264 266 274 280 284 286 287 289 292 294 295 296 298 302 302 302 301 299 295 294 292 287 281 276 277 278 275 272 267 261 255 252 252 253 255 249 250 252 255 260 267 274 278 279 277 279 283 286 288 290 290 294 297 309 304 300 297 289 285 281 278 268 257 252 249
294 297 297 296 295 296 295 292 290 291 293 294 292 285 272 266 270 277 276 270 267 269 277 279 282 284 287 288 290 292 294 296 298 299 299 300 301 301 297 292 288 284 279 272 270 272 270 265 258 253 251 249 247 247 255 252 252 254 256 260 266 270 279 274 276 273 276 281 284 290 289 289 289 298 297 300 301 292 290 286 279 270 262 253 249
295 295 296 295 294 292 292 292 291 292 293 289 288 281 269 269 273 275 277 278 274 272 273 275 278 281 285 286 288 292 294 294 294 295 295 296 299 302 296 288 285 280 276 272 268 269 267 261 255 250 245 243 243 240 245 252 251 255 256 259 264 266 263 266 269 270 270 273 276 279 283 284 299 300 300 300 298 291 282 279 279 274 265 258 254
295 297 297 296 292 292 289 294 293 294 289 285 283 280 273 271 265 267 276 277 274 274 271 272 276 280 283 286 287 289 291 292 292 291 291 292 294 298 295 286 283 280 276 273 268 267 266 262 256 252 246 240 239 237 237 245 250 251 255 259 264 265 265 263 265 266 264 264 267 271 274 285 293 288 292 297 296 294 287 282 279 275 271 261 255
296 297 297 295 291 287 290 292 294 295 292 286 285 281 276 272 268 265 268 269 273 274 270 271 275 279 283 286 289 290 291 292 292 291 290 290 290 291 289 284 284 282 278 274 269 266 263 260 255 250 246 242 240 235 231 233 241 244 249 255 262 264 265 261 263 263 264 265 262 264 265 259 274 284 292 293 291 292 290 285 283 281 275 264 251
296 296 294 289 288 287 288 289 286 286 289 282 273 275 282 281 271 270 270 270 272 273 271 272 275 280 285 290 293 293 292 292 293 293 292 292 290 287 282 281 283 284 283 279 273 268 263 259 253 249 246 243 239 233 228 228 231 235 242 250 258 261 263 260 260 262 264 264 259 259 257 244 270 277 280 284 290 291 289 287 282 280 277 269 260
295 293 291 287 282 290 287 283 278 277 278 275 273 276 278 283 280 275 272 271 272 274 275 277 281 286 289 293 295 295 295 295 296 295 294 292 291 288 284 281 282 283 283 280 274 270 266 261 257 252 246 243 240 235 230 228 230 233 234 245 254 259 252 249 254 257 258 258 259 257 251 244 262 271 276 278 282 284 285 283 282 282 280 273 269
295 291 281 285 292 290 288 266 277 284 281 280 280 284 280 283 281 278 273 272 274 280 279 280 285 289 294 292 290 293 295 296 298 296 297 295 292 292 289 286 285 284 282 278 274 269 266 262 259 254 247 241 238 239 234 230 233 235 234 235 253 250 247 246 248 249 250 255 259 256 245 246 250 263 265 268 272 276 279 281 284 279 275 280 277
292 295 292 282 277 277 277 284 287 293 283 279 276 274 276 284 281 275 273 276 278 280 281 284 290 292 291 290 290 290 294 295 296 296 296 298 298 295 293 290 288 286 282 279 274 268 264 262 259 256 250 242 238 237 237 236 235 236 238 237 245 247 247 245 244 244 246 249 251 252 243 247 251 263 262 263 264 267 278 282 278 278 277 279 273
288 285 266 247 254 268 280 286 295 295 291 285 275 273 278 273 277 274 271 278 277 279 281 288 290 292 291 290 288 289 293 294 295 296 297 296 296 298 296 293 291 288 284 279 275 268 264 261 258 253 252 248 240 236 236 235 236 241 242 243 244 245 245 244 242 240 242 243 245 248 244 244 253 260 262 262 260 257 259 268 271 274 275 270 268
288 293 287 264 275 277 281 296 300 295 283 273 272 271 271 269 266 272 269 270 276 277 286 289 290 291 290 290 288 290 293 292 296 299 299 299 296 295 291 292 292 288 283 280 274 265 260 255 253 250 250 244 240 237 237 236 233 234 236 240 243 243 244 244 241 239 237 242 241 245 245 242 244 254 259 260 260 258 253 264 269 272 269 266 264
290 301 298 286 288 289 281 279 286 286 281 272 275 275 273 271 269 274 273 275 280 284 286 289 290 292 294 294 294 293 293 297 300 301 301 302 300 294 290 289 286 283 280 271 264 259 258 255 253 250 246 244 240 237 235 236 233 232 234 236 241 243 242 242 240 238 237 238 240 239 242 239 238 248 255 258 258 259 257 258 267 267 265 262 259
287 292 299 281 289 310 303 264 271 279 275 276 276 276 272 268 270 272 273 274 279 282 287 287 293 296 297 299 295 295 295 297 301 303 302 299 295 292 289 285 283 279 276 269 262 255 255 254 253 250 248 244 242 237 234 232 232 232 231 235 238 240 240 240 240 238 236 235 240 238 236 236 233 246 249 254 257 257 257 255 254 260 261 260 260
287 274 287 275 296 311 304 271 271 272 284 279 279 274 270 268 267 271 279 280 283 289 293 295 295 299 300 298 297 296 297 300 303 305 300 295 292 291 289 285 281 279 272 266 260 255 252 255 255 253 250 248 245 242 236 232 228 231 229 232 235 237 237 237 238 237 236 235 240 239 234 232 232 239 244 248 252 254 255 256 257 255 253 253 260
281 265 270 285 300 304 295 279 276 276 279 280 281 278 273 279 275 283 287 290 293 298 297 299 298 299 301 296 295 296 298 302 305 302 297 294 291 290 288 285 284 281 276 266 261 255 253 253 256 257 253 249 248 243 236 235 230 236 228 227 236 239 239 237 237 237 236 236 238 242 232 231 232 231 240 243 247 251 254 257 257 257 256 250 257
269 258 277 305 301 291 286 281 278 282 279 280 286 280 283 289 292 297 299 300 302 302 301 300 301 300 298 295 293 295 299 303 303 296 293 290 289 291 290 290 290 283 276 268 261 259 257 254 254 254 255 250 247 242 237 234 231 234 239 231 239 239 239 238 239 241 240 239 238 242 233 235 230 232 231 240 243 247 249 253 256 256 256 253 249
251 251 286 311 289 282 283 275 276 274 276 282 281 284 291 297 303 304 304 310 307 306 305 302 302 300 296 288 283 298 304 299 297 292 290 287 288 290 293 295 294 288 280 270 262 261 260 258 256 254 256 253 244 240 238 237 232 228 230 232 234 231 231 234 239 241 242 242 241 243 241 233 235 232 236 235 242 245 248 247 252 256 257 256 252
250 255 283 302 277 277 274 273 271 274 281 291 296 297 301 306 310 309 309 310 307 306 307 306 305 302 283 289 308 296 284 276 271 266 264 281 286 287 292 291 291 293 287 271 263 263 262 259 257 254 257 256 248 239 236 238 234 226 227 234 231 233 231 233 233 237 242 242 241 241 244 241 233 234 236 239 239 243 244 248 250 251 252 256 255
256 257 275 276 266 270 264 266 268 275 287 292 296 301 309 314 315 313 314 309 309 310 309 311 310 294 298 315 312 309 298 291 295 305 298 273 252 263 294 288 284 289 277 251 255 259 263 259 256 253 252 255 255 245 236 239 240 234 231 235 237 237 230 234 231 235 236 234 234 238 239 243 247 238 237 239 241 243 243 246 251 252 253 252 256
270 269 268 256 253 258 261 262 265 279 296 298 301 306 310 313 314 316 315 310 310 312 312 312 306 296 311 317 312 308 304 307 306 310 308 296 272 215 284 285 280 278 259 251 269 264 258 257 253 252 252 255 261 256 243 237 238 236 233 233 237 237 240 243 237 236 246 247 240 233 233 235 236 250 247 239 243 243 244 243 248 253 253 252 253
281 269 259 246 237 237 246 250 267 286 302 301 304 309 311 312 314 313 312 311 311 311 310 305 300 300 313 313 307 307 311 315 310 308 309 305 293 258 202 282 279 274 263 262 266 261 254 249 249 252 253 263 268 261 252 242 238 237 236 237 237 238 240 244 242 240 243 248 253 249 241 234 233 232 235 248 245 245 247 246 245 247 247 253 257
266 257 249 220 203 217 231 241 267 299 308 314 314 311 311 312 313 312 310 309 305 303 298 291 289 294 307 312 315 315 314 316 316 314 308 303 291 274 241 283 279 271 267 263 259 258 255 253 252 258 259 261 252 243 243 249 250 247 244 241 240 241 244 245 243 242 242 244 248 252 250 246 237 234 233 232 250 257 251 248 245 244 248 250 254
275 261 254 238 217 186 187 211 264 298 306 308 308 307 311 314 313 311 308 306 300 297 293 289 289 293 305 311 314 311 309 310 314 306 302 305 305 280 262 283 282 271 269 263 254 252 254 258 257 265 262 247 255 255 248 248 245 246 245 247 245 244 247 247 245 245 247 247 248 248 252 255 252 245 238 237 238 250 260 253 248 250 249 249 255
284 274 264 242 234 217 164 145 283 295 299 300 301 306 308 313 311 309 307 302 296 293 293 295 295 295 299 302 306 307 307 309 308 309 301 306 299 284 279 291 281 274 271 262 253 244 248 257 261 254 256 257 264 272 267 261 256 252 250 250 246 242 243 246 248 247 250 252 251 250 249 248 249 250 248 243 240 242 264 262 253 253 255 256 252
291 263 265 270 262 239 175 111 44 291 287 291 295 300 305 306 303 301 300 294 289 288 290 294 295 295 298 299 303 304 303 309 313 308 310 310 306 300 298 285 279 275 271 263 254 247 247 253 262 263 268 271 269 275 280 278 273 265 255 251 248 247 249 250 248 253 251 251 254 252 248 246 248 247 248 249 247 244 242 262 268 262 260 260 259
253 252 267 270 269 285 339 9 29 311 283 280 287 289 290 287 289 294 291 287 284 283 286 289 291 291 293 295 296 295 295 301 305 307 305 300 296 293 285 280 277 276 272 265 255 249 250 255 265 271 270 271 274 278 282 284 282 277 268 257 253 253 253 252 251 250 250 249 250 251 253 252 249 248 247 247 249 249 245 239 244 247 257 265 262
247 226 249 269 263 259 311 331 339 318 291 282 287 288 292 298 292 290 287 284 285 287 289 288 288 287 288 290 291 290 290 294 296 292 286 280 278 276 277 276 274 276 274 268 258 254 258 263 264 277 279 274 271 279 279 281 280 280 274 265 260 260 260 255 253 253 256 254 253 250 248 249 251 253 250 249 249 249 249 249 246 247 247 263 261
239 238 220 227 234 263 299 329 314 311 304 299 297 296 301 293 289 293 287 288 289 291 291 286 282 282 286 287 286 284 289 293 294 291 284 278 272 270 271 271 269 269 270 267 264 263 261 264 265 266 274 277 276 276 278 280 286 282 280 276 268 258 258 257 255 253 255 260 261 256 249 247 253 255 251 248 247 248 248 243 243 244 247 249 262
239 238 239 248 251 268 299 314 294 297 307 297 295 297 296 296 295 296 289 288 290 290 286 283 280 283 287 288 286 283 286 291 293 290 286 279 275 271 268 264 262 262 261 264 264 265 266 267 268 265 269 278 278 283 283 287 284 284 285 280 272 265 260 257 256 253 257 262 262 261 253 245 253 253 243 237 236 239 243 245 244 246 248 253 256
264 252 249 259 269 276 287 291 285 287 291 291 293 296 289 278 281 286 288 280 267 271 278 280 287 290 291 292 291 292 292 293 295 293 287 281 277 273 269 267 265 263 263 263 264 264 265 268 270 270 273 271 273 277 284 283 281 286 280 284 281 279 273 272 263 254 257 262 262 264 262 254 251 249 241 237 241 246 249 248 249 250 251 254 255
270 253 252 265 272 276 281 282 281 283 283 286 287 281 278 272 269 277 276 278 283 280 280 289 nan 296 293 295 299 300 297 294 295 294 287 281 277 274 272 269 266 264 263 265 265 264 266 266 267 270 273 275 277 278 275 274 281 290 292 282 279 278 283 271 263 256 259 264 264 nan 267 262 nan nan nan nan nan 250 250 251 251 252 254 255 255
301 288 271 269 267 279 280 281 278 280 279 285 284 283 280 276 278 278 280 279 282 287 291 286 285 288 291 290 295 307 306 300 296 293 290 285 279 275 272 269 266 264 264 265 265 265 268 267 270 273 277 278 281 279 280 279 278 280 287 286 284 286 276 278 276 265 264 nan nan nan nan nan nan nan nan nan nan 256 255 255 255 255 255 256 259
307 306 296 290 286 285 285 280 272 274 282 288 288 287 287 289 294 296 296 290 287 289 294 293 294 289 282 nan nan 292 300 299 295 292 291 289 283 277 273 270 267 265 263 263 265 267 268 270 273 273 278 278 279 281 281 281 279 282 277 269 271 277 284 279 282 277 nan nan nan nan nan nan nan nan nan nan nan nan nan nan nan nan nan 258 260
311 302 300 301 303 297 295 290 282 282 284 289 293 287 288 294 304 305 304 301 290 274 nan nan 296 nan nan nan nan nan nan 295 292 290 289 287 285 280 276 272 269 265 262 261 261 263 265 265 265 266 269 271 275 277 281 282 281 279 279 276 275 272 280 286 283 286 283 nan nan nan nan nan nan nan nan nan nan nan nan nan nan nan nan nan 261
304 300 295 295 301 297 296 294 284 286 285 288 296 294 294 295 296 294 294 294 288 284 286 nan nan nan nan nan nan nan nan nan 287 288 288 285 280 276 272 269 267 263 260 259 259 259 259 259 260 260 261 265 269 271 276 280 282 279 279 281 280 276 275 276 281 284 285 nan nan nan nan nan nan nan nan nan nan nan nan nan nan nan nan nan nan
288 286 283 277 273 272 274 277 282 283 287 298 299 300 295 295 293 290 288 285 285 nan nan nan nan nan nan nan nan nan nan nan 278 283 283 282 279 276 272 269 267 264 260 258 258 260 261 263 264 262 265 265 267 268 274 278 278 280 281 279 280 279 279 276 278 283 nan nan nan nan nan nan nan nan nan nan nan nan nan nan nan nan nan nan nan
232 221 219 226 241 251 260 272 276 271 277 289 290 294 293 289 286 286 288 288 284 nan nan nan nan nan nan nan nan nan nan nan nan nan 276 276 276 277 276 272 270 266 262 258 261 261 261 263 265 265 267 269 267 270 269 273 274 281 280 281 281 279 279 nan nan nan nan nan nan nan nan nan nan nan nan nan nan nan nan nan nan nan nan nan nan
242 225 212 205 202 200 224 270 268 261 270 280 287 291 289 288 286 287 285 284 284 284 286 nan nan nan nan nan nan nan nan nan nan nan nan nan 269 267 267 268 268 265 263 263 264 262 263 263 264 266 268 269 268 268 269 269 271 278 282 285 nan nan nan nan nan nan nan nan nan nan nan nan nan nan nan nan nan nan nan nan nan nan nan nan nan